Location: Dampvalley
(47.9094°N, 6.1967°E)
Time: 05:54:35
(UTC+00:00)

Envisat - Pass Details

Date: 12 December 2022
Orbit: 763 x 765 km, 98.2° (Epoch: 27 January)

Event Time Altitude Azimuth Distance (km) Brightness Sun altitude
Rises 03:42:57 0° 15° (NNE) 3,245 6.5 -34.4°
Reaches altitude 10° 03:45:17 10° 18° (NNE) 2,313 5.7 -34.0°
Enters shadow 03:45:53 13° 19° (NNE) 2,081 5.4 -33.9°
